Time,TemperatureF,DewpointF,PressureIn,WindDirection,WindDirectionDegrees,WindSpeedMPH,WindSpeedGustMPH,Humidity,HourlyPrecipIn,Conditions,Clouds,dailyrainin,SoftwareType,DateUTC
2013-02-23 00:00:00,29.0,21.0,30.30,South,180,7.0,10.0,66,0.00,,,0.06,Rainwise IP-100,2013-02-23 05:00:00,
2013-02-23 00:05:00,29.0,21.0,30.30,South,180,6.0,7.0,67,0.00,,,0.00,Rainwise IP-100,2013-02-23 05:05:00,
2013-02-23 00:10:00,29.0,21.0,30.30,SSW,202,3.0,9.0,67,0.00,,,0.00,Rainwise IP-100,2013-02-23 05:10:00,
2013-02-23 00:15:00,29.0,21.0,30.30,SSE,157,2.0,6.0,68,0.00,,,0.00,Rainwise IP-100,2013-02-23 05:15:00,
2013-02-23 00:20:00,29.0,21.0,30.29,SSE,157,4.0,10.0,67,0.00,,,0.00,Rainwise IP-100,2013-02-23 05:20:00,
2013-02-23 00:25:00,29.0,21.0,30.29,South,180,7.0,12.0,67,0.00,,,0.00,Rainwise IP-100,2013-02-23 05:25:00,
2013-02-23 00:30:00,29.0,18.0,30.29,SW,225,8.0,9.0,65,0.00,,,0.00,Rainwise IP-100,2013-02-23 05:30:00,
2013-02-23 00:35:00,29.0,21.0,30.29,SW,225,5.0,10.0,66,0.00,,,0.00,Rainwise IP-100,2013-02-23 05:35:00,
2013-02-23 00:40:00,30.0,21.0,30.28,SW,225,7.0,9.0,65,0.00,,,0.00,Rainwise IP-100,2013-02-23 05:40:00,
2013-02-23 00:45:00,29.0,21.0,30.28,SW,225,6.0,11.0,66,0.00,,,0.00,Rainwise IP-100,2013-02-23 05:45:00,
2013-02-23 00:50:00,29.0,21.0,30.28,WSW,247,9.0,9.0,66,0.00,,,0.00,Rainwise IP-100,2013-02-23 05:50:00,
2013-02-23 00:55:00,29.0,21.0,30.28,SSE,157,6.0,9.0,66,0.00,,,0.00,Rainwise IP-100,2013-02-23 05:55:00,
2013-02-23 01:00:00,29.0,21.0,30.28,SW,225,5.0,10.0,66,0.00,,,0.00,Rainwise IP-100,2013-02-23 06:00:00,
2013-02-23 01:05:00,29.0,21.0,30.29,SE,135,9.0,9.0,67,0.00,,,0.00,Rainwise IP-100,2013-02-23 06:05:00,
2013-02-23 01:10:00,29.0,21.0,30.29,SSW,202,7.0,11.0,66,0.00,,,0.00,Rainwise IP-100,2013-02-23 06:10:00,
2013-02-23 01:15:00,29.0,21.0,30.28,SW,225,3.0,10.0,67,0.00,,,0.00,Rainwise IP-100,2013-02-23 06:15:00,
2013-02-23 01:17:00,29.0,21.0,30.28,SSW,202,9.0,10.0,67,0.00,,,0.00,Rainwise IP-100,2013-02-23 06:17:00,
2013-02-23 01:22:00,29.0,21.0,30.28,SW,225,6.0,11.0,68,0.00,,,0.00,Rainwise IP-100,2013-02-23 06:22:00,
2013-02-23 01:27:00,29.0,21.0,30.28,SSW,202,9.0,12.0,68,0.00,,,0.00,Rainwise IP-100,2013-02-23 06:27:00,
2013-02-23 01:32:00,29.0,21.0,30.28,SW,225,6.0,13.0,67,0.00,,,0.00,Rainwise IP-100,2013-02-23 06:32:00,
2013-02-23 01:37:00,29.0,21.0,30.28,SW,225,11.0,11.0,68,0.00,,,0.00,Rainwise IP-100,2013-02-23 06:37:00,
2013-02-23 01:42:00,29.0,21.0,30.28,SW,225,7.0,12.0,68,0.00,,,0.00,Rainwise IP-100,2013-02-23 06:42:00,
2013-02-23 01:47:00,29.0,21.0,30.28,SW,225,13.0,13.0,69,0.00,,,0.00,Rainwise IP-100,2013-02-23 06:47:00,
2013-02-23 01:52:00,29.0,21.0,30.27,SSW,202,7.0,13.0,69,0.00,,,0.00,Rainwise IP-100,2013-02-23 06:52:00,
2013-02-23 01:57:00,29.0,21.0,30.27,SW,225,6.0,12.0,70,0.00,,,0.00,Rainwise IP-100,2013-02-23 06:57:00,
2013-02-23 02:02:00,29.0,21.0,30.27,SSE,157,12.0,14.0,70,0.00,,,0.00,Rainwise IP-100,2013-02-23 07:02:00,
2013-02-23 02:07:00,29.0,21.0,30.27,South,180,10.0,12.0,70,0.00,,,0.00,Rainwise IP-100,2013-02-23 07:07:00,
2013-02-23 02:12:00,29.0,23.0,30.26,SW,225,7.0,11.0,72,0.00,,,0.00,Rainwise IP-100,2013-02-23 07:12:00,
2013-02-23 02:17:00,29.0,23.0,30.26,SW,225,7.0,12.0,72,0.00,,,0.00,Rainwise IP-100,2013-02-23 07:17:00,
2013-02-23 02:22:00,29.0,23.0,30.26,WSW,247,8.0,13.0,72,0.00,,,0.00,Rainwise IP-100,2013-02-23 07:22:00,
2013-02-23 02:27:00,28.0,21.0,30.26,SW,225,7.0,12.0,72,0.00,,,0.00,Rainwise IP-100,2013-02-23 07:27:00,
2013-02-23 02:32:00,28.0,21.0,30.25,WSW,247,7.0,12.0,72,0.00,,,0.00,Rainwise IP-100,2013-02-23 07:32:00,
2013-02-23 02:37:00,28.0,21.0,30.25,SW,225,10.0,12.0,73,0.00,,,0.00,Rainwise IP-100,2013-02-23 07:37:00,
2013-02-23 02:42:00,28.0,21.0,30.25,WSW,247,9.0,12.0,72,0.00,,,0.00,Rainwise IP-100,2013-02-23 07:42:00,
2013-02-23 02:47:00,28.0,21.0,30.25,SW,225,10.0,12.0,73,0.00,,,0.00,Rainwise IP-100,2013-02-23 07:47:00,
2013-02-23 02:52:00,29.0,23.0,30.25,SSW,202,8.0,12.0,73,0.00,,,0.00,Rainwise IP-100,2013-02-23 07:52:00,
2013-02-23 02:57:00,29.0,23.0,30.25,SW,225,7.0,15.0,72,0.00,,,0.00,Rainwise IP-100,2013-02-23 07:57:00,
2013-02-23 03:02:00,29.0,23.0,30.24,SSW,202,10.0,15.0,73,0.00,,,0.00,Rainwise IP-100,2013-02-23 08:02:00,
2013-02-23 03:07:00,28.0,21.0,30.24,SW,225,6.0,13.0,73,0.00,,,0.00,Rainwise IP-100,2013-02-23 08:07:00,
2013-02-23 03:12:00,28.0,21.0,30.24,SW,225,9.0,10.0,74,0.00,,,0.00,Rainwise IP-100,2013-02-23 08:12:00,
2013-02-23 03:17:00,28.0,21.0,30.24,SW,225,12.0,13.0,73,0.00,,,0.00,Rainwise IP-100,2013-02-23 08:17:00,
2013-02-23 03:22:00,28.0,21.0,30.24,SW,225,6.0,12.0,74,0.00,,,0.00,Rainwise IP-100,2013-02-23 08:22:00,
2013-02-23 03:27:00,28.0,21.0,30.24,South,180,10.0,17.0,74,0.00,,,0.00,Rainwise IP-100,2013-02-23 08:27:00,
2013-02-23 03:32:00,28.0,21.0,30.24,SW,225,6.0,16.0,75,0.00,,,0.00,Rainwise IP-100,2013-02-23 08:32:00,
2013-02-23 03:37:00,28.0,21.0,30.24,SW,225,11.0,16.0,75,0.00,,,0.00,Rainwise IP-100,2013-02-23 08:37:00,
2013-02-23 03:42:00,28.0,21.0,30.24,SSW,202,10.0,15.0,75,0.00,,,0.00,Rainwise IP-100,2013-02-23 08:42:00,
2013-02-23 03:47:00,28.0,21.0,30.24,SW,225,10.0,16.0,76,0.00,,,0.00,Rainwise IP-100,2013-02-23 08:47:00,
2013-02-23 03:52:00,28.0,21.0,30.23,WSW,247,9.0,19.0,76,0.00,,,0.00,Rainwise IP-100,2013-02-23 08:52:00,
2013-02-23 03:57:00,28.0,21.0,30.23,SW,225,13.0,18.0,76,0.00,,,0.00,Rainwise IP-100,2013-02-23 08:57:00,
2013-02-23 04:02:00,28.0,21.0,30.23,SW,225,13.0,16.0,76,0.00,,,0.00,Rainwise IP-100,2013-02-23 09:02:00,
2013-02-23 04:07:00,28.0,21.0,30.23,SSW,202,10.0,17.0,76,0.00,,,0.00,Rainwise IP-100,2013-02-23 09:07:00,
2013-02-23 04:12:00,28.0,23.0,30.23,SSW,202,7.0,17.0,77,0.00,,,0.00,Rainwise IP-100,2013-02-23 09:12:00,
2013-02-23 04:17:00,28.0,23.0,30.23,SW,225,10.0,14.0,77,0.00,,,0.00,Rainwise IP-100,2013-02-23 09:17:00,
2013-02-23 04:22:00,28.0,23.0,30.23,SW,225,10.0,15.0,77,0.00,,,0.00,Rainwise IP-100,2013-02-23 09:22:00,
2013-02-23 04:27:00,28.0,23.0,30.23,SW,225,13.0,15.0,78,0.00,,,0.00,Rainwise IP-100,2013-02-23 09:27:00,
2013-02-23 04:32:00,28.0,23.0,30.23,WSW,247,7.0,18.0,78,0.00,,,0.00,Rainwise IP-100,2013-02-23 09:32:00,
2013-02-23 04:37:00,28.0,23.0,30.23,SW,225,10.0,16.0,79,0.00,,,0.00,Rainwise IP-100,2013-02-23 09:37:00,
2013-02-23 04:42:00,28.0,23.0,30.23,SW,225,10.0,15.0,79,0.00,,,0.00,Rainwise IP-100,2013-02-23 09:42:00,
2013-02-23 04:47:00,28.0,23.0,30.23,WSW,247,6.0,16.0,79,0.00,,,0.00,Rainwise IP-100,2013-02-23 09:47:00,
2013-02-23 04:52:00,28.0,23.0,30.23,SSW,202,12.0,13.0,80,0.00,,,0.00,Rainwise IP-100,2013-02-23 09:52:00,
2013-02-23 04:57:00,28.0,23.0,30.23,SSW,202,10.0,16.0,80,0.00,,,0.00,Rainwise IP-100,2013-02-23 09:57:00,
2013-02-23 05:02:00,28.0,23.0,30.23,SW,225,15.0,17.0,80,0.00,,,0.00,Rainwise IP-100,2013-02-23 10:02:00,
2013-02-23 05:07:00,28.0,23.0,30.23,South,180,12.0,16.0,80,0.00,,,0.00,Rainwise IP-100,2013-02-23 10:07:00,
2013-02-23 05:12:00,28.0,23.0,30.23,SW,225,10.0,16.0,80,0.00,,,0.00,Rainwise IP-100,2013-02-23 10:12:00,
2013-02-23 05:17:00,29.0,24.0,30.23,SSW,202,5.0,12.0,81,0.00,,,0.00,Rainwise IP-100,2013-02-23 10:17:00,
2013-02-23 05:22:00,29.0,24.0,30.23,SSW,202,7.0,10.0,81,0.00,,,0.00,Rainwise IP-100,2013-02-23 10:22:00,
2013-02-23 05:27:00,29.0,24.0,30.23,SW,225,6.0,15.0,82,0.00,,,0.00,Rainwise IP-100,2013-02-23 10:27:00,
2013-02-23 05:32:00,29.0,24.0,30.22,WSW,247,4.0,10.0,82,0.00,,,0.00,Rainwise IP-100,2013-02-23 10:32:00,
2013-02-23 05:37:00,28.0,23.0,30.22,South,180,1.0,7.0,83,0.00,,,0.00,Rainwise IP-100,2013-02-23 10:37:00,
2013-02-23 05:42:00,28.0,23.0,30.22,South,180,4.0,9.0,83,0.00,,,0.00,Rainwise IP-100,2013-02-23 10:42:00,
2013-02-23 05:47:00,28.0,23.0,30.22,South,180,10.0,13.0,83,0.00,,,0.00,Rainwise IP-100,2013-02-23 10:47:00,
2013-02-23 05:52:00,28.0,23.0,30.22,SW,225,3.0,13.0,83,0.00,,,0.00,Rainwise IP-100,2013-02-23 10:52:00,
2013-02-23 05:57:00,28.0,24.0,30.22,SW,225,9.0,18.0,84,0.00,,,0.00,Rainwise IP-100,2013-02-23 10:57:00,
2013-02-23 06:02:00,28.0,24.0,30.22,SSE,157,11.0,15.0,84,0.00,,,0.00,Rainwise IP-100,2013-02-23 11:02:00,
2013-02-23 06:07:00,28.0,24.0,30.22,SW,225,10.0,17.0,85,0.00,,,0.00,Rainwise IP-100,2013-02-23 11:07:00,
2013-02-23 06:12:00,28.0,24.0,30.21,SW,225,13.0,20.0,85,0.00,,,0.00,Rainwise IP-100,2013-02-23 11:12:00,
2013-02-23 06:17:00,28.0,24.0,30.21,WSW,247,8.0,22.0,86,0.00,,,0.00,Rainwise IP-100,2013-02-23 11:17:00,
2013-02-23 06:22:00,28.0,24.0,30.21,SW,225,7.0,17.0,85,0.00,,,0.00,Rainwise IP-100,2013-02-23 11:22:00,
2013-02-23 06:27:00,28.0,24.0,30.21,WSW,247,12.0,16.0,85,0.00,,,0.00,Rainwise IP-100,2013-02-23 11:27:00,
2013-02-23 06:32:00,28.0,24.0,30.22,SSW,202,7.0,14.0,86,0.00,,,0.00,Rainwise IP-100,2013-02-23 11:32:00,
2013-02-23 06:37:00,28.0,24.0,30.22,SW,225,10.0,15.0,86,0.00,,,0.00,Rainwise IP-100,2013-02-23 11:37:00,
2013-02-23 06:42:00,28.0,24.0,30.22,SW,225,9.0,12.0,86,0.00,,,0.00,Rainwise IP-100,2013-02-23 11:42:00,
2013-02-23 06:47:00,28.0,24.0,30.22,WSW,247,4.0,12.0,86,0.00,,,0.00,Rainwise IP-100,2013-02-23 11:47:00,
2013-02-23 06:52:00,28.0,24.0,30.22,SW,225,6.0,16.0,85,0.00,,,0.00,Rainwise IP-100,2013-02-23 11:52:00,
2013-02-23 06:57:00,28.0,24.0,30.22,SSW,202,12.0,12.0,85,0.00,,,0.00,Rainwise IP-100,2013-02-23 11:57:00,
2013-02-23 07:02:00,28.0,24.0,30.22,SSW,202,12.0,15.0,84,0.00,,,0.00,Rainwise IP-100,2013-02-23 12:02:00,
2013-02-23 07:07:00,28.0,24.0,30.22,SSW,202,8.0,14.0,84,0.00,,,0.00,Rainwise IP-100,2013-02-23 12:07:00,
2013-02-23 07:12:00,28.0,24.0,30.21,SW,225,10.0,16.0,84,0.00,,,0.00,Rainwise IP-100,2013-02-23 12:12:00,
2013-02-23 07:17:00,28.0,24.0,30.21,SW,225,10.0,15.0,84,0.00,,,0.00,Rainwise IP-100,2013-02-23 12:17:00,
2013-02-23 07:22:00,28.0,24.0,30.22,South,180,13.0,17.0,84,0.00,,,0.00,Rainwise IP-100,2013-02-23 12:22:00,
2013-02-23 07:27:00,28.0,23.0,30.22,SW,225,10.0,17.0,82,0.00,,,0.00,Rainwise IP-100,2013-02-23 12:27:00,
2013-02-23 07:32:00,28.0,23.0,30.21,SW,225,12.0,17.0,83,0.00,,,0.00,Rainwise IP-100,2013-02-23 12:32:00,
2013-02-23 07:37:00,28.0,23.0,30.21,SW,225,7.0,16.0,82,0.00,,,0.00,Rainwise IP-100,2013-02-23 12:37:00,
2013-02-23 07:42:00,28.0,23.0,30.22,SW,225,10.0,15.0,82,0.00,,,0.00,Rainwise IP-100,2013-02-23 12:42:00,
2013-02-23 07:47:00,28.0,23.0,30.22,SSW,202,10.0,15.0,81,0.00,,,0.00,Rainwise IP-100,2013-02-23 12:47:00,
2013-02-23 07:52:00,28.0,23.0,30.22,SSW,202,9.0,13.0,81,0.00,,,0.00,Rainwise IP-100,2013-02-23 12:52:00,
2013-02-23 07:57:00,28.0,23.0,30.22,WSW,247,7.0,13.0,81,0.00,,,0.00,Rainwise IP-100,2013-02-23 12:57:00,
2013-02-23 08:02:00,28.0,23.0,30.22,SW,225,8.0,13.0,81,0.00,,,0.00,Rainwise IP-100,2013-02-23 13:02:00,
2013-02-23 08:07:00,28.0,23.0,30.22,SW,225,11.0,12.0,81,0.00,,,0.00,Rainwise IP-100,2013-02-23 13:07:00,
2013-02-23 08:12:00,28.0,23.0,30.21,SW,225,8.0,15.0,81,0.00,,,0.00,Rainwise IP-100,2013-02-23 13:12:00,
2013-02-23 08:17:00,28.0,23.0,30.21,SW,225,4.0,12.0,81,0.00,,,0.00,Rainwise IP-100,2013-02-23 13:17:00,
2013-02-23 08:22:00,29.0,24.0,30.21,SSW,202,9.0,10.0,81,0.00,,,0.00,Rainwise IP-100,2013-02-23 13:22:00,
2013-02-23 08:27:00,29.0,24.0,30.21,SSW,202,6.0,15.0,81,0.00,,,0.00,Rainwise IP-100,2013-02-23 13:27:00,
2013-02-23 08:32:00,29.0,24.0,30.21,SSW,202,10.0,14.0,81,0.00,,,0.00,Rainwise IP-100,2013-02-23 13:32:00,
2013-02-23 08:37:00,29.0,24.0,30.21,SW,225,7.0,12.0,81,0.00,,,0.00,Rainwise IP-100,2013-02-23 13:37:00,
2013-02-23 08:42:00,29.0,24.0,30.20,SW,225,7.0,12.0,81,0.00,,,0.00,Rainwise IP-100,2013-02-23 13:42:00,
2013-02-23 08:47:00,29.0,24.0,30.20,SW,225,7.0,14.0,81,0.00,,,0.00,Rainwise IP-100,2013-02-23 13:47:00,
2013-02-23 08:52:00,29.0,24.0,30.19,SSW,202,7.0,15.0,80,0.00,,,0.00,Rainwise IP-100,2013-02-23 13:52:00,
2013-02-23 08:57:00,29.0,24.0,30.19,SW,225,10.0,12.0,80,0.00,,,0.00,Rainwise IP-100,2013-02-23 13:57:00,
2013-02-23 09:02:00,29.0,24.0,30.19,SW,225,10.0,13.0,80,0.00,,,0.00,Rainwise IP-100,2013-02-23 14:02:00,
2013-02-23 09:07:00,29.0,24.0,30.19,SW,225,8.0,16.0,81,0.00,,,0.00,Rainwise IP-100,2013-02-23 14:07:00,
2013-02-23 09:12:00,29.0,24.0,30.19,SSW,202,6.0,12.0,81,0.00,,,0.00,Rainwise IP-100,2013-02-23 14:12:00,
2013-02-23 09:17:00,29.0,24.0,30.19,South,180,10.0,12.0,80,0.00,,,0.00,Rainwise IP-100,2013-02-23 14:17:00,
2013-02-23 09:22:00,29.0,24.0,30.19,South,180,7.0,16.0,80,0.00,,,0.00,Rainwise IP-100,2013-02-23 14:22:00,
2013-02-23 09:27:00,29.0,24.0,30.19,SW,225,7.0,13.0,80,0.00,,,0.00,Rainwise IP-100,2013-02-23 14:27:00,
2013-02-23 09:32:00,29.0,24.0,30.19,WSW,247,10.0,17.0,81,0.00,,,0.00,Rainwise IP-100,2013-02-23 14:32:00,
2013-02-23 09:37:00,29.0,24.0,30.19,SSW,202,5.0,13.0,81,0.00,,,0.00,Rainwise IP-100,2013-02-23 14:37:00,
2013-02-23 09:42:00,29.0,24.0,30.19,SW,225,7.0,13.0,81,0.00,,,0.00,Rainwise IP-100,2013-02-23 14:42:00,
2013-02-23 09:47:00,29.0,24.0,30.19,WSW,247,10.0,14.0,81,0.00,,,0.00,Rainwise IP-100,2013-02-23 14:47:00,
2013-02-23 09:52:00,29.0,24.0,30.20,SW,225,11.0,13.0,81,0.00,,,0.00,Rainwise IP-100,2013-02-23 14:52:00,
2013-02-23 09:57:00,29.0,24.0,30.20,SW,225,7.0,13.0,81,0.00,,,0.00,Rainwise IP-100,2013-02-23 14:57:00,
2013-02-23 10:02:00,29.0,24.0,30.19,South,180,10.0,13.0,82,0.00,,,0.00,Rainwise IP-100,2013-02-23 15:02:00,
2013-02-23 10:07:00,29.0,24.0,30.19,SSW,202,12.0,15.0,82,0.00,,,0.00,Rainwise IP-100,2013-02-23 15:07:00,
2013-02-23 10:12:00,29.0,24.0,30.19,SSW,202,12.0,17.0,81,0.00,,,0.00,Rainwise IP-100,2013-02-23 15:12:00,
2013-02-23 10:17:00,29.0,24.0,30.19,SSW,202,15.0,15.0,81,0.00,,,0.00,Rainwise IP-100,2013-02-23 15:17:00,
2013-02-23 10:22:00,29.0,24.0,30.18,WSW,247,10.0,18.0,81,0.00,,,0.00,Rainwise IP-100,2013-02-23 15:22:00,
2013-02-23 10:27:00,29.0,24.0,30.18,SW,225,6.0,14.0,82,0.00,,,0.00,Rainwise IP-100,2013-02-23 15:27:00,
2013-02-23 10:32:00,29.0,24.0,30.18,SW,225,12.0,13.0,81,0.00,,,0.00,Rainwise IP-100,2013-02-23 15:32:00,
2013-02-23 10:37:00,29.0,24.0,30.18,SW,225,7.0,15.0,82,0.00,,,0.00,Rainwise IP-100,2013-02-23 15:37:00,
2013-02-23 10:42:00,29.0,24.0,30.18,SW,225,5.0,10.0,82,0.00,,,0.00,Rainwise IP-100,2013-02-23 15:42:00,
2013-02-23 10:47:00,29.0,24.0,30.18,SW,225,7.0,14.0,82,0.00,,,0.00,Rainwise IP-100,2013-02-23 15:47:00,
2013-02-23 10:52:00,29.0,24.0,30.17,WSW,247,3.0,12.0,82,0.00,,,0.00,Rainwise IP-100,2013-02-23 15:52:00,
2013-02-23 10:57:00,29.0,24.0,30.17,SW,225,7.0,12.0,83,0.00,,,0.00,Rainwise IP-100,2013-02-23 15:57:00,
2013-02-23 11:02:00,29.0,24.0,30.18,SSW,202,9.0,10.0,83,0.00,,,0.00,Rainwise IP-100,2013-02-23 16:02:00,
2013-02-23 11:07:00,29.0,24.0,30.18,SW,225,10.0,12.0,83,0.00,,,0.00,Rainwise IP-100,2013-02-23 16:07:00,
2013-02-23 11:12:00,29.0,24.0,30.17,SW,225,7.0,11.0,83,0.00,,,0.00,Rainwise IP-100,2013-02-23 16:12:00,
2013-02-23 11:17:00,29.0,24.0,30.17,SSE,157,9.0,13.0,84,0.00,,,0.00,Rainwise IP-100,2013-02-23 16:17:00,
2013-02-23 11:22:00,29.0,26.0,30.17,SW,225,8.0,15.0,86,0.00,,,0.00,Rainwise IP-100,2013-02-23 16:22:00,
2013-02-23 11:27:00,29.0,26.0,30.17,SW,225,7.0,12.0,87,0.00,,,0.00,Rainwise IP-100,2013-02-23 16:27:00,
2013-02-23 11:32:00,29.0,26.0,30.17,SW,225,6.0,12.0,88,0.00,,,0.00,Rainwise IP-100,2013-02-23 16:32:00,
2013-02-23 11:37:00,29.0,26.0,30.17,WSW,247,7.0,10.0,88,0.00,,,0.00,Rainwise IP-100,2013-02-23 16:37:00,
2013-02-23 11:42:00,29.0,26.0,30.16,SW,225,9.0,10.0,88,0.00,,,0.00,Rainwise IP-100,2013-02-23 16:42:00,
2013-02-23 11:47:00,29.0,26.0,30.16,SW,225,9.0,12.0,89,0.00,,,0.00,Rainwise IP-100,2013-02-23 16:47:00,
2013-02-23 11:52:00,30.0,28.0,30.15,WSW,247,6.0,13.0,89,0.00,,,0.00,Rainwise IP-100,2013-02-23 16:52:00,
2013-02-23 11:57:00,30.0,28.0,30.15,WSW,247,7.0,10.0,88,0.00,,,0.00,Rainwise IP-100,2013-02-23 16:57:00,
2013-02-23 12:02:00,30.0,28.0,30.15,South,180,8.0,9.0,88,0.00,,,0.00,Rainwise IP-100,2013-02-23 17:02:00,
2013-02-23 12:07:00,30.0,28.0,30.15,SSW,202,9.0,12.0,87,0.00,,,0.00,Rainwise IP-100,2013-02-23 17:07:00,
2013-02-23 12:12:00,30.0,28.0,30.15,SSW,202,7.0,12.0,87,0.00,,,0.00,Rainwise IP-100,2013-02-23 17:12:00,
2013-02-23 12:17:00,30.0,28.0,30.15,SW,225,9.0,10.0,87,0.00,,,0.00,Rainwise IP-100,2013-02-23 17:17:00,
2013-02-23 12:22:00,30.0,28.0,30.15,SW,225,11.0,11.0,87,0.00,,,0.00,Rainwise IP-100,2013-02-23 17:22:00,
2013-02-23 12:27:00,30.0,28.0,30.15,SW,225,7.0,12.0,88,0.00,,,0.00,Rainwise IP-100,2013-02-23 17:27:00,
2013-02-23 12:32:00,29.0,28.0,30.14,SW,225,7.0,12.0,91,0.00,,,0.00,Rainwise IP-100,2013-02-23 17:32:00,
2013-02-23 12:37:00,29.0,28.0,30.14,SW,225,7.0,11.0,94,0.00,,,0.00,Rainwise IP-100,2013-02-23 17:37:00,
2013-02-23 12:42:00,29.0,28.0,30.14,SW,225,11.0,12.0,94,0.00,,,0.00,Rainwise IP-100,2013-02-23 17:42:00,
2013-02-23 12:47:00,29.0,28.0,30.14,SW,225,7.0,13.0,94,0.00,,,0.00,Rainwise IP-100,2013-02-23 17:47:00,
2013-02-23 12:52:00,29.0,28.0,30.14,SW,225,9.0,14.0,94,0.00,,,0.00,Rainwise IP-100,2013-02-23 17:52:00,
2013-02-23 12:57:00,29.0,28.0,30.14,SW,225,6.0,12.0,94,0.00,,,0.00,Rainwise IP-100,2013-02-23 17:57:00,
2013-02-23 13:02:00,29.0,28.0,30.13,WSW,247,6.0,12.0,94,0.00,,,0.00,Rainwise IP-100,2013-02-23 18:02:00,
2013-02-23 13:07:00,29.0,28.0,30.13,SW,225,8.0,9.0,94,0.00,,,0.00,Rainwise IP-100,2013-02-23 18:07:00,
2013-02-23 13:12:00,29.0,28.0,30.13,SW,225,9.0,13.0,94,0.00,,,0.00,Rainwise IP-100,2013-02-23 18:12:00,
2013-02-23 13:17:00,29.0,28.0,30.13,SSW,202,10.0,12.0,94,0.00,,,0.00,Rainwise IP-100,2013-02-23 18:17:00,
2013-02-23 13:22:00,29.0,28.0,30.13,WSW,247,7.0,12.0,94,0.00,,,0.00,Rainwise IP-100,2013-02-23 18:22:00,
2013-02-23 13:27:00,29.0,28.0,30.13,SSW,202,11.0,12.0,94,0.00,,,0.00,Rainwise IP-100,2013-02-23 18:27:00,
2013-02-23 13:32:00,29.0,28.0,30.13,SW,225,10.0,15.0,94,0.00,,,0.00,Rainwise IP-100,2013-02-23 18:32:00,
2013-02-23 13:37:00,29.0,28.0,30.13,SW,225,6.0,12.0,94,0.00,,,0.00,Rainwise IP-100,2013-02-23 18:37:00,
2013-02-23 13:42:00,29.0,28.0,30.13,SSW,202,6.0,9.0,94,0.00,,,0.00,Rainwise IP-100,2013-02-23 18:42:00,
2013-02-23 13:47:00,29.0,28.0,30.13,WSW,247,9.0,13.0,94,0.00,,,0.00,Rainwise IP-100,2013-02-23 18:47:00,
2013-02-23 13:52:00,29.0,28.0,30.12,South,180,7.0,15.0,94,0.00,,,0.00,Rainwise IP-100,2013-02-23 18:52:00,
2013-02-23 13:57:00,29.0,28.0,30.12,SSW,202,12.0,13.0,94,0.00,,,0.00,Rainwise IP-100,2013-02-23 18:57:00,
2013-02-23 14:02:00,29.0,28.0,30.12,SW,225,9.0,14.0,94,0.00,,,0.00,Rainwise IP-100,2013-02-23 19:02:00,
2013-02-23 14:07:00,29.0,28.0,30.12,SSW,202,5.0,12.0,94,0.00,,,0.00,Rainwise IP-100,2013-02-23 19:07:00,
2013-02-23 14:12:00,29.0,28.0,30.11,SW,225,7.0,10.0,94,0.00,,,0.00,Rainwise IP-100,2013-02-23 19:12:00,
2013-02-23 14:14:00,29.0,28.0,30.11,SW,225,7.0,10.0,94,0.00,,,0.00,Rainwise IP-100,2013-02-23 19:14:00,
2013-02-23 14:19:00,28.0,26.0,30.11,SW,225,8.0,12.0,94,0.00,,,0.00,Rainwise IP-100,2013-02-23 19:19:00,
2013-02-23 14:24:00,28.0,26.0,30.11,SW,225,8.0,12.0,94,0.00,,,0.00,Rainwise IP-100,2013-02-23 19:24:00,
2013-02-23 14:29:00,28.0,26.0,30.11,SW,225,7.0,12.0,94,0.00,,,0.00,Rainwise IP-100,2013-02-23 19:29:00,
2013-02-23 14:34:00,28.0,26.0,30.11,SW,225,7.0,12.0,94,0.00,,,0.00,Rainwise IP-100,2013-02-23 19:34:00,
2013-02-23 14:39:00,29.0,28.0,30.11,SW,225,9.0,12.0,94,0.00,,,0.00,Rainwise IP-100,2013-02-23 19:39:00,
2013-02-23 14:44:00,29.0,28.0,30.11,SW,225,7.0,11.0,94,0.00,,,0.00,Rainwise IP-100,2013-02-23 19:44:00,
2013-02-23 14:49:00,29.0,28.0,30.11,SW,225,9.0,12.0,94,0.00,,,0.00,Rainwise IP-100,2013-02-23 19:49:00,
2013-02-23 14:54:00,29.0,28.0,30.10,SW,225,12.0,15.0,94,0.00,,,0.00,Rainwise IP-100,2013-02-23 19:54:00,
2013-02-23 14:59:00,29.0,28.0,30.10,SW,225,9.0,16.0,94,0.00,,,0.00,Rainwise IP-100,2013-02-23 19:59:00,
2013-02-23 15:04:00,29.0,28.0,30.11,SW,225,9.0,12.0,94,0.00,,,0.00,Rainwise IP-100,2013-02-23 20:04:00,
2013-02-23 15:09:00,29.0,28.0,30.11,SW,225,9.0,15.0,94,0.00,,,0.00,Rainwise IP-100,2013-02-23 20:09:00,
2013-02-23 15:14:00,29.0,28.0,30.11,SW,225,9.0,15.0,94,0.00,,,0.00,Rainwise IP-100,2013-02-23 20:14:00,
2013-02-23 15:19:00,29.0,28.0,30.11,West,270,7.0,12.0,94,0.00,,,0.00,Rainwise IP-100,2013-02-23 20:19:00,
2013-02-23 15:24:00,29.0,28.0,30.10,SW,225,10.0,13.0,94,0.00,,,0.00,Rainwise IP-100,2013-02-23 20:24:00,
2013-02-23 15:29:00,29.0,28.0,30.10,SW,225,7.0,12.0,94,0.00,,,0.00,Rainwise IP-100,2013-02-23 20:29:00,
2013-02-23 15:34:00,29.0,28.0,30.10,WSW,247,8.0,12.0,94,0.00,,,0.00,Rainwise IP-100,2013-02-23 20:34:00,
2013-02-23 15:39:00,29.0,28.0,30.10,WSW,247,7.0,10.0,94,0.00,,,0.00,Rainwise IP-100,2013-02-23 20:39:00,
2013-02-23 15:44:00,29.0,28.0,30.10,SW,225,6.0,10.0,94,0.00,,,0.00,Rainwise IP-100,2013-02-23 20:44:00,
2013-02-23 15:49:00,29.0,28.0,30.10,SW,225,7.0,13.0,94,0.00,,,0.00,Rainwise IP-100,2013-02-23 20:49:00,
2013-02-23 15:54:00,29.0,28.0,30.09,SW,225,6.0,13.0,94,0.00,,,0.00,Rainwise IP-100,2013-02-23 20:54:00,
2013-02-23 15:59:00,29.0,28.0,30.09,SW,225,10.0,12.0,94,0.00,,,0.00,Rainwise IP-100,2013-02-23 20:59:00,
2013-02-23 16:04:00,29.0,28.0,30.09,SW,225,7.0,12.0,94,0.00,,,0.00,Rainwise IP-100,2013-02-23 21:04:00,
2013-02-23 16:09:00,29.0,28.0,30.09,SW,225,5.0,8.0,94,0.00,,,0.00,Rainwise IP-100,2013-02-23 21:09:00,
2013-02-23 16:14:00,29.0,28.0,30.09,SW,225,7.0,8.0,94,0.00,,,0.00,Rainwise IP-100,2013-02-23 21:14:00,
2013-02-23 16:19:00,29.0,28.0,30.09,WSW,247,7.0,11.0,94,0.00,,,0.00,Rainwise IP-100,2013-02-23 21:19:00,
2013-02-23 16:24:00,29.0,28.0,30.09,SW,225,8.0,12.0,94,0.00,,,0.00,Rainwise IP-100,2013-02-23 21:24:00,
2013-02-23 16:29:00,29.0,28.0,30.09,SW,225,5.0,12.0,94,0.00,,,0.00,Rainwise IP-100,2013-02-23 21:29:00,
2013-02-23 16:34:00,29.0,28.0,30.09,SW,225,7.0,9.0,94,0.00,,,0.00,Rainwise IP-100,2013-02-23 21:34:00,
2013-02-23 16:39:00,29.0,28.0,30.09,SW,225,5.0,9.0,94,0.00,,,0.00,Rainwise IP-100,2013-02-23 21:39:00,
2013-02-23 16:44:00,29.0,28.0,30.09,SW,225,6.0,9.0,94,0.00,,,0.00,Rainwise IP-100,2013-02-23 21:44:00,
2013-02-23 16:49:00,29.0,28.0,30.09,SW,225,7.0,9.0,94,0.00,,,0.00,Rainwise IP-100,2013-02-23 21:49:00,
2013-02-23 16:54:00,29.0,28.0,30.09,SSW,202,7.0,9.0,94,0.00,,,0.00,Rainwise IP-100,2013-02-23 21:54:00,
2013-02-23 16:59:00,29.0,28.0,30.09,WSW,247,6.0,11.0,94,0.00,,,0.00,Rainwise IP-100,2013-02-23 21:59:00,
2013-02-23 17:04:00,29.0,28.0,30.08,SW,225,9.0,12.0,94,0.00,,,0.00,Rainwise IP-100,2013-02-23 22:04:00,
2013-02-23 17:09:00,29.0,28.0,30.08,WSW,247,7.0,10.0,94,0.00,,,0.00,Rainwise IP-100,2013-02-23 22:09:00,
2013-02-23 17:14:00,29.0,28.0,30.08,SW,225,8.0,12.0,94,0.00,,,0.00,Rainwise IP-100,2013-02-23 22:14:00,
2013-02-23 17:19:00,29.0,28.0,30.08,SW,225,7.0,13.0,94,0.00,,,0.00,Rainwise IP-100,2013-02-23 22:19:00,
2013-02-23 17:24:00,29.0,28.0,30.08,SW,225,10.0,10.0,94,0.00,,,0.00,Rainwise IP-100,2013-02-23 22:24:00,
2013-02-23 17:29:00,29.0,28.0,30.08,SW,225,7.0,13.0,94,0.00,,,0.00,Rainwise IP-100,2013-02-23 22:29:00,
2013-02-23 17:34:00,29.0,28.0,30.08,SW,225,6.0,12.0,94,0.00,,,0.00,Rainwise IP-100,2013-02-23 22:34:00,
2013-02-23 17:39:00,29.0,28.0,30.08,WSW,247,7.0,12.0,94,0.00,,,0.00,Rainwise IP-100,2013-02-23 22:39:00,
2013-02-23 17:44:00,29.0,28.0,30.07,SW,225,9.0,11.0,94,0.00,,,0.00,Rainwise IP-100,2013-02-23 22:44:00,
2013-02-23 17:49:00,29.0,28.0,30.07,SW,225,8.0,11.0,94,0.00,,,0.00,Rainwise IP-100,2013-02-23 22:49:00,
2013-02-23 17:54:00,29.0,28.0,30.07,SW,225,8.0,12.0,94,0.00,,,0.00,Rainwise IP-100,2013-02-23 22:54:00,
2013-02-23 17:59:00,29.0,28.0,30.07,SW,225,7.0,10.0,94,0.00,,,0.00,Rainwise IP-100,2013-02-23 22:59:00,
2013-02-23 18:04:00,29.0,28.0,30.07,SW,225,6.0,11.0,94,0.00,,,0.00,Rainwise IP-100,2013-02-23 23:04:00,
2013-02-23 18:09:00,29.0,28.0,30.07,WSW,247,8.0,10.0,94,0.00,,,0.00,Rainwise IP-100,2013-02-23 23:09:00,
2013-02-23 18:14:00,29.0,28.0,30.07,WSW,247,7.0,10.0,94,0.00,,,0.00,Rainwise IP-100,2013-02-23 23:14:00,
2013-02-23 18:19:00,29.0,28.0,30.07,SW,225,5.0,12.0,94,0.00,,,0.00,Rainwise IP-100,2013-02-23 23:19:00,
2013-02-23 18:24:00,29.0,28.0,30.07,SW,225,8.0,12.0,94,0.00,,,0.00,Rainwise IP-100,2013-02-23 23:24:00,
2013-02-23 18:29:00,29.0,28.0,30.07,SSW,202,7.0,10.0,94,0.00,,,0.00,Rainwise IP-100,2013-02-23 23:29:00,
2013-02-23 18:34:00,29.0,28.0,30.07,SW,225,6.0,12.0,94,0.00,,,0.00,Rainwise IP-100,2013-02-23 23:34:00,
2013-02-23 18:39:00,29.0,28.0,30.07,SW,225,6.0,11.0,94,0.00,,,0.00,Rainwise IP-100,2013-02-23 23:39:00,
2013-02-23 18:44:00,29.0,28.0,30.07,SW,225,6.0,10.0,94,0.00,,,0.00,Rainwise IP-100,2013-02-23 23:44:00,
2013-02-23 18:49:00,29.0,28.0,30.07,SW,225,7.0,11.0,94,0.00,,,0.00,Rainwise IP-100,2013-02-23 23:49:00,
2013-02-23 18:54:00,29.0,28.0,30.07,SW,225,8.0,12.0,94,0.00,,,0.00,Rainwise IP-100,2013-02-23 23:54:00,
2013-02-23 18:59:00,29.0,28.0,30.07,SW,225,9.0,12.0,94,0.00,,,0.00,Rainwise IP-100,2013-02-23 23:59:00,
2013-02-23 19:04:00,29.0,28.0,30.06,SW,225,7.0,10.0,94,0.00,,,0.00,Rainwise IP-100,2013-02-24 00:04:00,
2013-02-23 19:09:00,29.0,28.0,30.06,SW,225,6.0,9.0,94,0.00,,,0.00,Rainwise IP-100,2013-02-24 00:09:00,
2013-02-23 19:14:00,29.0,28.0,30.06,SW,225,9.0,11.0,94,0.00,,,0.00,Rainwise IP-100,2013-02-24 00:14:00,
2013-02-23 19:19:00,29.0,28.0,30.06,SW,225,8.0,11.0,94,0.00,,,0.00,Rainwise IP-100,2013-02-24 00:19:00,
2013-02-23 19:24:00,29.0,28.0,30.06,SW,225,6.0,9.0,94,0.00,,,0.00,Rainwise IP-100,2013-02-24 00:24:00,
2013-02-23 19:29:00,29.0,28.0,30.06,SW,225,6.0,12.0,94,0.00,,,0.00,Rainwise IP-100,2013-02-24 00:29:00,
2013-02-23 19:34:00,29.0,28.0,30.06,SSW,202,9.0,10.0,94,0.00,,,0.00,Rainwise IP-100,2013-02-24 00:34:00,
2013-02-23 19:39:00,29.0,28.0,30.06,SSW,202,6.0,10.0,94,0.00,,,0.00,Rainwise IP-100,2013-02-24 00:39:00,
2013-02-23 19:44:00,29.0,28.0,30.05,SW,225,7.0,10.0,94,0.00,,,0.00,Rainwise IP-100,2013-02-24 00:44:00,
2013-02-23 19:49:00,29.0,28.0,30.05,SW,225,9.0,10.0,94,0.00,,,0.00,Rainwise IP-100,2013-02-24 00:49:00,
2013-02-23 19:54:00,29.0,28.0,30.05,SW,225,6.0,11.0,94,0.00,,,0.00,Rainwise IP-100,2013-02-24 00:54:00,
2013-02-23 19:59:00,29.0,28.0,30.05,SW,225,7.0,11.0,94,0.00,,,0.00,Rainwise IP-100,2013-02-24 00:59:00,
2013-02-23 20:04:00,29.0,28.0,30.06,SSW,202,9.0,10.0,94,0.00,,,0.00,Rainwise IP-100,2013-02-24 01:04:00,
2013-02-23 20:09:00,29.0,28.0,30.06,WSW,247,6.0,9.0,94,0.00,,,0.00,Rainwise IP-100,2013-02-24 01:09:00,
2013-02-23 20:14:00,29.0,28.0,30.06,WSW,247,6.0,7.0,94,0.00,,,0.00,Rainwise IP-100,2013-02-24 01:14:00,
2013-02-23 20:19:00,29.0,28.0,30.06,WSW,247,4.0,10.0,94,0.00,,,0.00,Rainwise IP-100,2013-02-24 01:19:00,
2013-02-23 20:24:00,29.0,28.0,30.05,SW,225,6.0,9.0,94,0.00,,,0.00,Rainwise IP-100,2013-02-24 01:24:00,
2013-02-23 20:29:00,29.0,28.0,30.05,WSW,247,5.0,10.0,94,0.00,,,0.00,Rainwise IP-100,2013-02-24 01:29:00,
2013-02-23 20:34:00,29.0,28.0,30.05,SW,225,6.0,9.0,94,0.00,,,0.00,Rainwise IP-100,2013-02-24 01:34:00,
2013-02-23 20:39:00,29.0,28.0,30.05,West,270,6.0,7.0,94,0.00,,,0.00,Rainwise IP-100,2013-02-24 01:39:00,
2013-02-23 20:44:00,29.0,28.0,30.05,West,270,6.0,6.0,94,0.00,,,0.00,Rainwise IP-100,2013-02-24 01:44:00,
2013-02-23 20:49:00,29.0,28.0,30.05,WNW,292,6.0,7.0,94,0.00,,,0.00,Rainwise IP-100,2013-02-24 01:49:00,
2013-02-23 20:54:00,29.0,28.0,30.05,West,270,6.0,7.0,94,0.00,,,0.00,Rainwise IP-100,2013-02-24 01:54:00,
2013-02-23 20:59:00,29.0,28.0,30.05,WNW,292,2.0,7.0,94,0.00,,,0.00,Rainwise IP-100,2013-02-24 01:59:00,
2013-02-23 21:04:00,29.0,28.0,30.05,West,270,2.0,5.0,94,0.00,,,0.00,Rainwise IP-100,2013-02-24 02:04:00,
2013-02-23 21:09:00,29.0,28.0,30.05,West,270,3.0,6.0,94,0.00,,,0.00,Rainwise IP-100,2013-02-24 02:09:00,
2013-02-23 21:14:00,29.0,28.0,30.05,West,270,3.0,6.0,94,0.00,,,0.00,Rainwise IP-100,2013-02-24 02:14:00,
2013-02-23 21:19:00,29.0,28.0,30.05,West,270,6.0,7.0,94,0.00,,,0.00,Rainwise IP-100,2013-02-24 02:19:00,
2013-02-23 21:24:00,29.0,28.0,30.04,WSW,247,6.0,6.0,94,0.00,,,0.00,Rainwise IP-100,2013-02-24 02:24:00,
2013-02-23 21:29:00,29.0,28.0,30.04,SW,225,6.0,8.0,94,0.00,,,0.00,Rainwise IP-100,2013-02-24 02:29:00,
2013-02-23 21:34:00,29.0,28.0,30.04,SW,225,6.0,9.0,94,0.00,,,0.00,Rainwise IP-100,2013-02-24 02:34:00,
2013-02-23 21:39:00,29.0,28.0,30.04,West,270,5.0,7.0,94,0.00,,,0.00,Rainwise IP-100,2013-02-24 02:39:00,
2013-02-23 21:44:00,29.0,28.0,30.04,WSW,247,3.0,6.0,94,0.00,,,0.00,Rainwise IP-100,2013-02-24 02:44:00,
2013-02-23 21:49:00,29.0,28.0,30.04,West,270,4.0,6.0,94,0.00,,,0.00,Rainwise IP-100,2013-02-24 02:49:00,
2013-02-23 21:54:00,29.0,28.0,30.03,West,270,3.0,6.0,94,0.00,,,0.00,Rainwise IP-100,2013-02-24 02:54:00,
2013-02-23 21:59:00,29.0,28.0,30.03,West,270,2.0,3.0,94,0.00,,,0.00,Rainwise IP-100,2013-02-24 02:59:00,
2013-02-23 22:04:00,29.0,28.0,30.03,SW,225,3.0,4.0,94,0.00,,,0.00,Rainwise IP-100,2013-02-24 03:04:00,
2013-02-23 22:09:00,29.0,28.0,30.03,West,270,5.0,7.0,94,0.00,,,0.00,Rainwise IP-100,2013-02-24 03:09:00,
2013-02-23 22:14:00,29.0,28.0,30.02,WSW,247,5.0,7.0,94,0.00,,,0.00,Rainwise IP-100,2013-02-24 03:14:00,
2013-02-23 22:19:00,29.0,28.0,30.02,West,270,2.0,6.0,94,0.00,,,0.00,Rainwise IP-100,2013-02-24 03:19:00,
2013-02-23 22:24:00,29.0,28.0,30.02,SW,225,3.0,6.0,94,0.00,,,0.00,Rainwise IP-100,2013-02-24 03:24:00,
2013-02-23 22:29:00,29.0,28.0,30.02,WSW,247,4.0,7.0,94,0.00,,,0.00,Rainwise IP-100,2013-02-24 03:29:00,
2013-02-23 22:34:00,29.0,28.0,30.01,SW,225,6.0,10.0,94,0.00,,,0.00,Rainwise IP-100,2013-02-24 03:34:00,
2013-02-23 22:39:00,29.0,28.0,30.01,SSW,202,6.0,7.0,94,0.00,,,0.00,Rainwise IP-100,2013-02-24 03:39:00,
2013-02-23 22:44:00,29.0,28.0,30.01,SW,225,8.0,9.0,94,0.00,,,0.00,Rainwise IP-100,2013-02-24 03:44:00,
2013-02-23 22:49:00,29.0,28.0,30.01,SSW,202,6.0,8.0,94,0.00,,,0.00,Rainwise IP-100,2013-02-24 03:49:00,
2013-02-23 22:54:00,29.0,28.0,30.01,SSW,202,6.0,8.0,94,0.00,,,0.00,Rainwise IP-100,2013-02-24 03:54:00,
2013-02-23 22:59:00,29.0,28.0,30.01,SW,225,6.0,8.0,94,0.00,,,0.00,Rainwise IP-100,2013-02-24 03:59:00,
2013-02-23 23:04:00,29.0,28.0,30.00,WSW,247,2.0,6.0,94,0.00,,,0.00,Rainwise IP-100,2013-02-24 04:04:00,
2013-02-23 23:09:00,29.0,28.0,30.00,WSW,247,4.0,7.0,94,0.00,,,0.00,Rainwise IP-100,2013-02-24 04:09:00,
2013-02-23 23:14:00,29.0,28.0,30.00,West,270,2.0,6.0,94,0.00,,,0.00,Rainwise IP-100,2013-02-24 04:14:00,
2013-02-23 23:19:00,29.0,28.0,30.00,West,270,2.0,4.0,94,0.00,,,0.00,Rainwise IP-100,2013-02-24 04:19:00,
2013-02-23 23:24:00,29.0,28.0,30.00,WSW,247,4.0,5.0,94,0.00,,,0.00,Rainwise IP-100,2013-02-24 04:24:00,
2013-02-23 23:29:00,29.0,28.0,30.00,SW,225,3.0,6.0,94,0.00,,,0.00,Rainwise IP-100,2013-02-24 04:29:00,
2013-02-23 23:34:00,29.0,28.0,29.99,WSW,247,4.0,6.0,94,0.00,,,0.00,Rainwise IP-100,2013-02-24 04:34:00,
2013-02-23 23:39:00,29.0,28.0,29.99,WSW,247,3.0,6.0,94,0.00,,,0.00,Rainwise IP-100,2013-02-24 04:39:00,
2013-02-23 23:44:00,29.0,28.0,30.00,SW,225,3.0,5.0,94,0.00,,,0.00,Rainwise IP-100,2013-02-24 04:44:00,
2013-02-23 23:49:00,29.0,28.0,30.00,WSW,247,4.0,6.0,94,0.00,,,0.00,Rainwise IP-100,2013-02-24 04:49:00,
2013-02-23 23:54:00,29.0,28.0,30.00,WNW,292,4.0,5.0,94,0.00,,,0.00,Rainwise IP-100,2013-02-24 04:54:00,
2013-02-23 23:59:00,29.0,28.0,30.00,WSW,247,2.0,6.0,94,0.00,,,0.00,Rainwise IP-100,2013-02-24 04:59:00,